{"data":{"norad_id":67520,"epoch":"2026-09-19T19:34:22.666368Z","epoch_age_seconds":131406,"freshness":"FRESH","line1":"1 67520U 26012AD  26262.81554012  .00008600  00000+0  32161-3 0  9994","line2":"2 67520  43.0050 297.8347 0001546 274.5199  85.5476 15.27589101 37450","mean_motion":15.27589101,"eccentricity":0.0001546,"inclination_deg":43.005,"raan_deg":297.8347,"arg_perigee_deg":274.5199,"mean_anomaly_deg":85.5476,"bstar":0.00032161,"rev_number":3745,"period_min":94.266187095557,"perigee_km":481.96110934952,"apogee_km":484.08257966424,"semimajor_km":6861.1588445069,"source":"CELESTRAK","updated_at":"2026-09-20T09:00:43.564252Z"}}